Simultaneous Nadir Overpasses (SNOs) Predictions

Prediction of SNOs between METOP-B and NOAA-19 Satellite Orbit:

Table of predicted SNOs for the next 14.0 days since TLE Epoch: 1/10/2025
Index Date (METOP-B) Time (METOP-B) Lat,Lon (METOP-B) SZA (METOP-B ) Date (NOAA-19) Time (NOAA-19) Lat,Lon (NOAA-19) SZA (NOAA-19 ) Distance(km) Time Diff (sec)
1 01/21/2025 10:17:56 -80.39, -78.84 73.31 01/21/2025 10:16:43 -80.40, -78.95 73.38 2.03 73
2 01/21/2025 11:08:36 80.37, 88.78 106.72 01/21/2025 11:07:36 80.37, 88.82 106.69 0.87 60
3 01/21/2025 11:59:16 -80.34,-103.58 73.25 01/21/2025 11:58:37 -80.34,-103.47 73.26 2.09 39
4 01/21/2025 12:49:57 80.34, 63.73 106.74 01/21/2025 12:49:32 80.35, 63.65 106.71 1.65 25
5 01/21/2025 13:40:37 -80.32,-128.63 73.23 01/21/2025 13:40:33 -80.31,-128.65 73.24 0.41 4
6 01/21/2025 14:31:17 80.29, 39.00 106.80 01/21/2025 14:31:26 80.28, 39.12 106.83 2.49 9
7 01/21/2025 15:21:57 -80.26,-153.37 73.17 01/21/2025 15:22:28 -80.27,-153.50 73.17 2.81 31
8 01/21/2025 16:12:37 80.24, 14.25 106.86 01/21/2025 16:13:21 80.24, 14.26 106.90 0.24 44



Historial Predications of SNOs between METOP-B and NOAA-19
